DW6064 Weather Reports


time (UTC)temp
F
wind
direction
speed
knots
gust
knots
rain 1hr
in
rain 24hr
in
rain mn
in
humidity
%
barometer
mb
20200531081038 55 327 0.0 1.7 0.00 0.00 0.00 59 1019.1
20200531080528 55 346 0.0 1.7 0.00 0.00 0.00 59 1019.1
20200531080026 55 346 0.0 0.0 0.00 0.00 0.00 58 1018.9
20200531075542 55 355 0.0 2.6 0.00 0.00 0.00 57 1018.9
20200531075037 56 355 0.0 2.6 0.00 0.00 0.00 57 1018.8
20200531074526 56 26 0.9 2.6 0.00 0.00 0.00 57 1018.8
20200531074043 56 343 0.9 2.6 0.00 0.00 0.00 56 1018.8
20200531073536 56 336 0.0 2.6 0.00 0.00 0.00 56 1018.7
20200531073034 56 333 0.9 3.5 0.00 0.00 0.00 56 1018.7
20200531072527 55 11 0.9 5.2 0.00 0.00 0.00 56 1018.6
20200531072043 55 332 0.9 5.2 0.00 0.00 0.00 58 1018.7
20200531071529 55 300 0.9 5.2 0.00 0.00 0.00 61 1018.7
20200531071027 55 328 0.0 5.2 0.00 0.00 0.00 60 1018.6
20200531070542 55 313 0.0 2.6 0.00 0.00 0.00 60 1018.7
20200531070038 55 337 0.9 2.6 0.00 0.00 0.00 61 1018.7
20200531065530 55 333 0.9 2.6 0.00 0.00 0.00 60 1018.7
20200531065025 56 324 0.0 0.0 0.00 0.00 0.00 61 1018.7
20200531064533 56 338 0.0 0.0 0.00 0.00 0.00 61 1018.6
20200531064030 56 338 0.0 0.9 0.00 0.00 0.00 60 1018.6
20200531063541 56 335 0.0 1.7 0.00 0.00 0.00 60 1018.6
20200531063041 56 336 0.9 1.7 0.00 0.00 0.00 58 1018.6
20200531062529 57 332 0.9 1.7 0.00 0.00 0.00 58 1018.5
20200531062025 57 323 0.9 1.7 0.00 0.00 0.00 57 1018.6
20200531061528 57 325 0.0 0.0 0.00 0.00 0.00 57 1018.6
20200531061024 57 19 0.0 0.0 0.00 0.00 0.00 56 1018.5
20200531060537 58 19 0.0 0.0 0.00 0.00 0.00 54 1018.4
20200531060035 58 19 0.0 0.0 0.00 0.00 0.00 54 1018.3
20200531055525 59 19 0.0 0.0 0.00 0.00 0.00 54 1018.3
20200531055025 59 20 0.0 0.0 0.00 0.00 0.00 54 1018.3
20200531054540 59 19 0.0 0.0 0.00 0.00 0.00 54 1018.3
20200531054038 60 36 0.0 0.9 0.00 0.00 0.00 52 1018.4
20200531053528 60 36 0.9 1.7 0.00 0.00 0.00 51 1018.3
20200531053025 60 32 0.9 1.7 0.00 0.00 0.00 51 1018.3
20200531052542 60 18 0.9 1.7 0.00 0.00 0.00 50 1018.3
20200531052039 61 5 0.9 1.7 0.00 0.00 0.00 50 1018.3
20200531051526 61 26 0.0 1.7 0.00 0.00 0.00 50 1018.3
20200531051043 61 5 0.0 1.7 0.00 0.00 0.00 49 1018.3
20200531050538 61 25 0.9 1.7 0.00 0.00 0.00 48 1018.3
20200531050035 61 348 0.0 1.7 0.00 0.00 0.00 48 1018.3
20200531045525 62 350 0.0 2.6 0.00 0.00 0.00 47 1018.3
20200531045043 62 39 0.9 2.6 0.00 0.00 0.00 47 1018.2
20200531044532 62 30 0.9 2.6 0.00 0.00 0.00 48 1018.2
20200531044029 62 24 0.9 3.5 0.00 0.00 0.00 47 1018.2
20200531043542 62 351 1.7 4.3 0.00 0.00 0.00 47 1018.2
20200531043039 62 360 0.9 10.4 0.00 0.00 0.00 46 1018.2
20200531042526 62 355 0.9 10.4 0.00 0.00 0.00 47 1018.2
20200531042027 62 5 0.9 2.6 0.00 0.00 0.00 48 1018.3
20200531041541 63 46 0.9 2.6 0.00 0.00 0.00 48 1018.2
20200531041038 63 27 0.9 2.6 0.00 0.00 0.00 47 1018.2
20200531040526 63 13 0.9 5.2 0.00 0.00 0.00 47 1018.2
20200531040041 63 311 0.9 5.2 0.00 0.00 0.00 47 1018.2
20200531035530 63 321 0.0 5.2 0.00 0.00 0.00 46 1018.2
20200531035026 63 327 1.7 7.0 0.00 0.00 0.00 45 1018.3
20200531034535 64 13 1.7 7.0 0.00 0.00 0.00 45 1018.2
20200531034033 64 355 1.7 11.3 0.00 0.00 0.00 47 1018.2
20200531033525 64 336 1.7 11.3 0.00 0.00 0.00 48 1018.1
20200531033043 64 22 0.9 11.3 0.00 0.00 0.00 49 1018.1
20200531032532 64 312 3.5 11.3 0.00 0.00 0.00 48 1017.9
20200531032028 65 355 2.6 11.3 0.00 0.00 0.00 50 1018.0
20200531031544 65 327 0.9 7.8 0.00 0.00 0.00 51 1017.9
20200531031040 65 20 0.9 9.6 0.00 0.00 0.00 52 1018.0
20200531030529 65 12 0.9 9.6 0.00 0.00 0.00 53 1017.9
20200531030027 65 36 0.9 3.5 0.00 0.00 0.00 53 1018.0
20200531025540 66 360 0.9 12.2 0.00 0.01 0.00 54 1017.9
20200531025037 66 48 1.7 12.2 0.00 0.01 0.00 53 1017.7
20200531024529 66 329 0.9 4.3 0.00 0.01 0.00 55 1017.6
20200531024029 66 30 1.7 7.0 0.00 0.01 0.00 55 1017.5
20200531023541 66 298 0.0 7.0 0.00 0.01 0.00 57 1017.4
20200531023039 66 345 0.9 3.5 0.00 0.01 0.00 56 1017.4
20200531022527 66 334 0.9 3.5 0.00 0.01 0.00 55 1017.1
20200531022024 66 340 0.9 2.6 0.00 0.01 0.00 55 1017.2
20200531021540 66 335 0.0 2.6 0.00 0.01 0.00 55 1017.1
20200531021037 67 322 0.0 1.7 0.00 0.01 0.00 55 1017.1
20200531020526 67 313 0.0 5.2 0.00 0.01 0.00 55 1017.0
20200531020043 67 325 0.9 5.2 0.00 0.01 0.00 55 1016.9
20200531015532 67 348 0.9 6.1 0.00 0.13 0.00 54 1016.6
20200531015030 67 294 1.7 6.1 0.00 0.13 0.00 54 1016.6
20200531014542 67 342 1.7 5.2 0.00 0.13 0.00 55 1016.5
20200531014041 67 311 1.7 4.3 0.00 0.13 0.00 55 1016.5
20200531013531 68 346 1.7 4.3 0.00 0.13 0.00 55 1016.4
20200531013028 68 344 0.9 3.5 0.00 0.13 0.00 55 1016.3
20200531012536 68 339 0.9 4.3 0.00 0.13 0.00 54 1016.3
20200531012033 69 5 0.9 12.2 0.00 0.13 0.00 53 1016.2
20200531011525 69 344 1.7 12.2 0.00 0.13 0.00 53 1016.2
20200531011041 69 343 1.7 4.3 0.00 0.13 0.00 53 1016.1
20200531010532 69 329 0.9 4.3 0.00 0.13 0.00 53 1016.0
20200531010030 69 321 0.9 5.2 0.00 0.13 0.00 53 1016.0
20200531005544 69 5 0.9 10.4 0.00 0.13 0.00 52 1015.9
20200531005041 69 355 2.6 10.4 0.00 0.13 0.00 52 1015.9
20200531004529 70 326 1.7 7.0 0.00 0.13 0.00 52 1015.7
20200531004025 70 332 0.9 3.5 0.00 0.13 0.00 52 1015.6
20200531003533 70 290 0.9 8.7 0.00 0.13 0.00 51 1015.5
20200531003030 70 319 0.9 8.7 0.00 0.13 0.00 52 1015.5
20200531002543 71 345 0.9 1.7 0.00 0.13 0.00 53 1015.4
20200531002040 71 292 0.9 2.6 0.00 0.13 0.00 52 1015.3
20200531001529 71 333 0.9 2.6 0.00 0.13 0.00 51 1015.1
20200531001026 72 329 1.7 3.5 0.00 0.13 0.00 50 1015.1
20200531000537 72 348 1.7 7.0 0.00 0.13 0.00 50 1015.0
20200531000031 72 329 1.7 7.0 0.00 0.13 0.00 50 1014.9
20200530235544 73 344 0.9 10.4 0.00 0.13 0.00 50 1014.8
20200530235041 73 312 1.7 10.4 0.00 0.13 0.00 49 1014.8
20200530234537 73 330 0.9 5.2 0.00 0.13 0.00 48 1014.7
20200530234038 73 311 1.7 7.0 0.00 0.13 0.00 47 1014.7
20200530233525 74 320 1.7 7.0 0.00 0.13 0.00 46 1014.6
20200530233042 74 311 0.9 7.8 0.00 0.13 0.00 46 1014.7
20200530232528 74 283 0.9 7.8 0.00 0.13 0.00 46 1014.6
20200530232025 75 272 0.9 8.7 0.00 0.13 0.00 45 1014.5
20200530231533 75 298 2.6 8.7 0.00 0.13 0.00 44 1014.5
20200530231030 76 304 0.9 8.7 0.00 0.13 0.00 45 1014.5
20200530230543 76 302 1.7 8.7 0.00 0.13 0.00 44 1014.5
20200530230039 76 303 1.7 8.7 0.00 0.13 0.00 45 1014.5
20200530225527 76 295 1.7 7.8 0.00 0.13 0.00 44 1014.5
20200530225025 76 290 1.7 7.8 0.00 0.13 0.00 44 1014.5
20200530224533 76 292 0.9 8.7 0.00 0.13 0.00 45 1014.5
20200530224031 77 360 2.6 11.3 0.00 0.13 0.00 42 1014.4
20200530223542 77 307 1.7 11.3 0.00 0.13 0.00 41 1014.4
20200530223038 77 298 1.7 11.3 0.00 0.13 0.00 42 1014.2
20200530222526 77 11 1.7 11.3 0.00 0.13 0.00 43 1014.2
20200530222043 77 311 1.7 7.8 0.00 0.13 0.00 44 1014.2
20200530221538 77 284 1.7 7.0 0.00 0.13 0.00 44 1014.1
20200530221035 77 289 1.7 7.8 0.00 0.13 0.00 43 1014.0
20200530220529 76 261 1.7 8.7 0.00 0.13 0.00 46 1014.2
20200530220028 76 319 1.7 10.4 0.00 0.13 0.00 45 1014.1
20200530215541 76 288 2.6 10.4 0.00 0.13 0.00 45 1014.1
20200530215038 76 293 0.9 6.1 0.00 0.13 0.00 47 1014.0
20200530214528 76 265 0.9 3.5 0.00 0.13 0.00 48 1014.0
20200530214043 76 351 0.9 4.3 0.00 0.13 0.00 46 1014.0
20200530213531 76 304 0.9 4.3 0.00 0.13 0.00 45 1014.0
20200530213027 77 348 0.9 7.0 0.00 0.13 0.00 46 1014.0
20200530212538 77 315 0.9 7.0 0.00 0.13 0.00 44 1014.0
20200530212029 77 311 0.0 7.8 0.00 0.13 0.00 44 1013.9
20200530211543 78 302 1.7 7.8 0.00 0.13 0.00 44 1014.0
20200530211041 77 18 0.9 3.5 0.00 0.13 0.00 46 1014.0
20200530210531 77 5 0.9 7.0 0.00 0.13 0.00 45 1014.0
20200530210029 78 327 0.9 7.0 0.00 0.13 0.00 44 1014.0
20200530205542 78 315 0.9 7.0 0.00 0.13 0.00 42 1014.1
20200530205039 79 286 1.7 13.0 0.00 0.13 0.00 43 1014.0
20200530204526 78 281 3.5 13.0 0.00 0.13 0.00 41 1013.9
20200530204042 78 305 1.7 10.4 0.00 0.13 0.00 40 1013.9
20200530203530 77 289 3.5 12.2 0.00 0.13 0.00 40 1014.0
20200530203032 78 302 3.5 12.2 0.00 0.13 0.00 40 1014.0
20200530202542 77 283 1.7 7.0 0.00 0.13 0.00 41 1013.9
20200530202037 77 302 1.7 12.2 0.00 0.13 0.00 41 1013.9
20200530201525 78 300 2.6 12.2 0.00 0.13 0.00 40 1013.9
20200530201041 78 311 2.6 9.6 0.00 0.13 0.00 39 1013.8
20200530200529 77 294 1.7 11.3 0.00 0.13 0.00 42 1013.8
20200530200024 76 318 1.7 11.3 0.00 0.13 0.00 42 1013.8
20200530195533 77 309 1.7 8.7 0.00 0.13 0.00 42 1013.8
20200530195030 77 316 2.6 8.7 0.00 0.13 0.00 43 1013.7
20200530194544 77 299 0.0 5.2 0.00 0.13 0.00 46 1013.8
20200530194040 77 320 0.0 9.6 0.00 0.13 0.00 45 1013.8
20200530193530 77 289 1.7 9.6 0.00 0.13 0.00 46 1013.9
20200530193026 77 285 0.9 6.1 0.00 0.13 0.00 44 1013.9
20200530192540 77 281 1.7 4.3 0.00 0.13 0.00 41 1013.9
20200530192037 77 258 0.9 4.3 0.00 0.13 0.00 44 1013.9
20200530191525 77 342 1.7 4.3 0.00 0.13 0.00 42 1013.9
20200530191042 78 350 1.7 4.3 0.00 0.13 0.00 45 1013.9
20200530190530 78 342 1.7 4.3 0.00 0.13 0.00 43 1014.0
20200530190043 78 306 1.7 4.3 0.00 0.13 0.00 43 1014.0
20200530185528 78 298 0.9 7.0 0.00 0.13 0.00 46 1013.9
20200530185030 78 300 0.0 3.5 0.00 0.13 0.00 43 1014.0
20200530184542 78 284 1.7 8.7 0.00 0.13 0.00 44 1014.0
20200530184040 78 286 1.7 8.7 0.00 0.13 0.00 45 1014.1
20200530183530 78 324 0.9 5.2 0.00 0.13 0.00 45 1014.1
20200530183026 78 222 1.7 5.2 0.00 0.13 0.00 46 1014.1
20200530182540 78 264 0.9 6.1 0.00 0.13 0.00 42 1014.2
20200530182038 78 11 0.9 6.1 0.00 0.13 0.00 43 1014.3
20200530181527 77 340 0.9 4.3 0.00 0.13 0.00 45 1014.3
20200530181044 77 336 1.7 4.3 0.00 0.13 0.00 44 1014.3
20200530180532 77 302 0.9 7.0 0.00 0.13 0.00 43 1014.4
20200530180029 78 261 0.9 7.0 0.00 0.13 0.00 43 1014.5
20200530175543 78 342 1.7 3.5 0.00 0.17 0.00 42 1014.5
20200530175038 79 306 0.0 4.3 0.00 0.17 0.00 44 1014.5
20200530174526 78 298 1.7 4.3 0.00 0.17 0.00 41 1014.5
20200530174044 78 320 0.0 3.5 0.00 0.17 0.00 45 1014.5
20200530173531 78 339 0.0 7.0 0.00 0.17 0.00 41 1014.7
20200530173028 78 339 0.9 7.0 0.00 0.17 0.00 44 1014.8
20200530172542 77 296 0.0 3.5 0.00 0.17 0.00 47 1014.8
20200530172039 77 320 1.7 6.1 0.00 0.17 0.00 43 1014.9
20200530171533 78 214 0.9 5.2 0.00 0.17 0.00 47 1014.9
20200530171029 78 273 0.9 5.2 0.00 0.17 0.00 43 1015.0
20200530170541 78 227 0.9 9.6 0.00 0.17 0.00 45 1015.0
20200530170038 77 307 1.7 9.6 0.00 0.17 0.00 44 1015.1
20200530165528 77 269 1.7 4.3 0.00 0.18 0.00 43 1015.1
20200530165025 77 199 0.9 3.5 0.00 0.18 0.00 46 1015.1
20200530164540 77 17 0.9 3.5 0.00 0.18 0.00 46 1015.0
20200530164036 77 219 0.0 2.6 0.00 0.18 0.00 48 1015.0
20200530163524 76 265 0.0 2.6 0.00 0.18 0.00 48 1015.1
20200530163041 76 216 0.9 2.6 0.00 0.18 0.00 48 1015.0
20200530162530 76 322 0.9 2.6 0.00 0.18 0.00 49 1015.1
20200530162026 76 281 0.0 2.6 0.00 0.18 0.00 51 1015.2
20200530161540 76 297 0.0 2.6 0.00 0.18 0.00 46 1015.1
20200530161038 76 291 1.7 2.6 0.00 0.18 0.00 47 1015.2
20200530160525 75 306 0.0 2.6 0.00 0.18 0.00 50 1015.2
20200530160043 75 317 0.9 3.5 0.00 0.18 0.00 50 1015.3
20200530155529 75 9 1.7 3.5 0.00 0.18 0.00 51 1015.4
20200530155026 74 355 0.0 4.3 0.00 0.18 0.00 49 1015.5
20200530154540 74 332 1.7 4.3 0.00 0.18 0.00 49 1015.5
20200530154040 74 302 0.0 3.5 0.00 0.18 0.00 51 1015.7
20200530153526 74 310 0.9 5.2 0.00 0.18 0.00 51 1015.7
20200530153044 74 311 0.0 4.3 0.00 0.18 0.00 50 1015.8
20200530152531 74 24 0.9 8.7 0.00 0.18 0.00 52 1015.9
20200530152027 73 80 1.7 8.7 0.00 0.18 0.00 54 1015.9
20200530151541 73 274 0.9 3.5 0.00 0.18 0.00 52 1016.0
20200530151039 73 5 0.9 3.5 0.00 0.18 0.00 53 1016.0
20200530150526 72 40 1.7 2.6 0.00 0.18 0.00 54 1016.0
20200530150043 72 300 0.9 3.5 0.00 0.18 0.00 53 1016.0
20200530145529 72 333 0.9 6.1 0.00 0.18 0.00 53 1016.2
20200530145026 72 291 0.9 6.1 0.00 0.18 0.00 54 1016.1
20200530144532 72 336 0.0 3.5 0.00 0.18 0.00 57 1016.2
20200530144028 72 32 0.9 3.5 0.00 0.18 0.00 57 1016.2
20200530143544 72 355 0.9 2.6 0.00 0.18 0.00 55 1016.2
20200530143041 71 317 0.9 2.6 0.00 0.18 0.00 57 1016.2
20200530142529 71 36 0.9 7.0 0.00 0.18 0.00 58 1016.1
20200530142025 71 33 0.9 7.0 0.00 0.18 0.00 56 1016.2
20200530141540 70 11 0.9 2.6 0.00 0.18 0.00 57 1016.2
20200530141038 70 338 0.0 1.7 0.00 0.18 0.00 58 1016.2
20200530140530 70 146 0.9 1.7 0.00 0.18 0.00 58 1016.1
20200530140028 69 74 0.0 1.7 0.00 0.18 0.00 60 1016.2
20200530135541 69 286 0.0 0.9 0.00 0.18 0.00 59 1016.2
20200530135039 69 355 0.0 1.7 0.00 0.18 0.00 58 1016.2
20200530134529 69 351 0.9 1.7 0.00 0.18 0.00 58 1016.3
20200530134026 68 333 0.0 4.3 0.00 0.18 0.00 60 1016.2
20200530133534 68 355 0.9 4.3 0.00 0.18 0.00 60 1016.3
20200530133030 68 350 0.0 3.5 0.00 0.18 0.00 60 1016.3
20200530132543 68 355 0.9 3.5 0.00 0.18 0.00 61 1016.3
20200530132041 67 331 0.9 4.3 0.00 0.18 0.00 61 1016.4
20200530131535 67 322 0.9 4.3 0.00 0.18 0.00 60 1016.3
20200530131031 67 360 0.9 2.6 0.00 0.18 0.00 61 1016.5
20200530130543 66 344 0.9 3.5 0.00 0.18 0.00 61 1016.5
20200530130041 66 332 1.7 2.6 0.00 0.18 0.00 62 1016.5
20200530125528 66 325 0.9 2.6 0.00 0.18 0.00 61 1016.4
20200530125027 65 344 0.0 1.7 0.00 0.18 0.00 63 1016.4
20200530124540 65 304 0.0 0.0 0.00 0.18 0.00 63 1016.4
20200530124038 65 331 0.0 1.7 0.00 0.18 0.00 63 1016.5
20200530123531 65 323 0.0 5.2 0.00 0.18 0.00 65 1016.4
20200530123029 65 336 0.0 7.0 0.00 0.18 0.00 65 1016.3
20200530122542 64 311 0.0 7.0 0.00 0.18 0.00 65 1016.2
20200530122041 64 290 0.9 5.2 0.00 0.18 0.00 65 1016.3
20200530121530 64 340 0.9 2.6 0.00 0.18 0.00 65 1016.3
20200530121025 64 318 0.0 2.6 0.00 0.18 0.00 65 1016.2
20200530120542 64 26 0.9 4.3 0.00 0.18 0.00 65 1016.2
20200530120040 64 348 1.7 4.3 0.00 0.18 0.00 66 1016.2
20200530115526 64 324 0.9 3.5 0.00 0.18 0.00 67 1016.2
20200530115044 64 360 0.0 0.0 0.00 0.18 0.00 67 1016.2
20200530114531 63 334 0.0 0.0 0.00 0.18 0.00 68 1016.0
20200530114028 63 355 0.0 0.0 0.00 0.18 0.00 69 1016.1
20200530113542 63 322 0.0 0.0 0.00 0.18 0.00 71 1016.1
20200530113039 63 340 0.0 2.6 0.00 0.18 0.00 71 1016.0
20200530112529 62 340 0.0 7.0 0.00 0.18 0.00 72 1016.0
20200530112027 62 325 0.0 7.0 0.00 0.18 0.00 77 1015.9
20200530111541 62 326 0.0 3.5 0.00 0.18 0.00 78 1015.8
20200530111035 62 346 0.9 4.3 0.00 0.18 0.00 79 1015.8
20200530110527 62 328 0.9 4.3 0.00 0.18 0.00 79 1015.9
20200530110044 62 332 0.0 0.0 0.00 0.18 0.00 79 1015.9
20200530105539 63 333 0.0 0.0 0.00 0.18 0.00 79 1015.9
20200530105036 63 335 0.0 0.0 0.00 0.18 0.00 79 1016.0
20200530104525 63 335 0.0 0.0 0.00 0.18 0.00 79 1016.0
20200530104041 63 335 0.0 0.0 0.00 0.18 0.00 78 1016.0
20200530103530 63 290 0.0 0.0 0.00 0.18 0.00 78 1015.9
20200530103025 63 348 0.0 2.6 0.00 0.18 0.00 78 1015.9
20200530102535 63 5 0.0 2.6 0.00 0.18 0.00 77 1015.9
20200530102032 63 340 0.0 2.6 0.00 0.18 0.00 76 1015.7
20200530101525 63 321 0.9 3.5 0.00 0.18 0.00 76 1015.5
20200530101043 64 317 0.0 3.5 0.00 0.18 0.00 76 1015.4
20200530100530 64 297 0.9 5.2 0.00 0.18 0.00 75 1015.4
20200530100028 64 296 1.7 5.2 0.00 0.18 0.00 75 1015.3
20200530095542 64 314 0.9 5.2 0.00 0.18 0.00 75 1015.2
20200530095040 64 313 1.7 4.3 0.00 0.18 0.00 77 1015.1
20200530094527 65 322 1.7 4.3 0.00 0.18 0.00 77 1015.1
20200530094024 65 341 1.7 7.8 0.00 0.18 0.00 78 1014.9
20200530093535 65 321 1.7 11.3 0.00 0.18 0.00 78 1014.8
20200530093036 65 273 2.6 11.3 0.00 0.18 0.00 78 1014.8
20200530092525 65 315 2.6 9.6 0.00 0.18 0.00 79 1014.8
20200530092041 65 336 2.6 8.7 0.00 0.18 0.00 80 1014.7
20200530091531 65 338 1.7 5.2 0.00 0.18 0.00 81 1014.7
20200530091028 65 326 0.0 0.0 0.00 0.18 0.00 80 1014.6
20200530090543 65 313 0.0 0.0 0.00 0.18 0.00 80 1014.6
20200530090040 65 308 0.0 0.0 0.00 0.18 0.00 80 1014.4
20200530085540 65 275 0.0 7.0 0.00 0.18 0.00 80 1014.4
20200530085036 65 297 0.9 7.0 0.00 0.18 0.00 80 1014.3
20200530084526 65 297 0.0 4.3 0.00 0.18 0.00 80 1014.2
20200530084044 65 295 0.9 7.8 0.00 0.18 0.00 80 1014.2
20200530083539 65 267 3.5 7.8 0.00 0.18 0.00 81 1014.1
20200530083035 65 279 0.9 7.8 0.00 0.18 0.00 81 1014.0
20200530082525 65 279 0.0 7.8 0.00 0.18 0.00 82 1014.0
20200530082043 65 272 0.0 2.6 0.00 0.18 0.00 82 1014.0
20200530081538 64 279 0.0 2.6 0.00 0.18 0.00 83 1014.0